Simultaneous Nadir Overpasses (SNOs) Predictions

Prediction of SNOs between METOP-B and TERRA Satellite Orbit:

Table of predicted SNOs for the next 14.0 days since TLE Epoch: 10/29/2016
Index Date (METOP-B) Time (METOP-B) Lat,Lon (METOP-B) SZA (METOP-B ) Date (TERRA) Time (TERRA) Lat,Lon (TERRA) SZA (TERRA ) Distance(km) Time Diff (sec)
1 10/30/2016 15:50:31 81.28, -10.84 98.45 10/30/2016 15:50:59 81.29, -10.72 98.48 2.14 28
2 10/30/2016 16:41:10 -81.29, 157.05 81.48 10/30/2016 16:40:26 -81.28, 156.89 81.52 2.72 44
3 11/02/2016 11:24:54 81.28, 55.58 99.34 11/02/2016 11:25:14 81.28, 55.66 99.36 1.36 20
4 11/02/2016 12:15:34 -81.29,-136.90 80.63 11/02/2016 12:14:41 -81.28,-136.71 80.63 3.19 53
5 11/05/2016 06:59:16 81.29, 122.36 100.25 11/05/2016 06:59:28 81.30, 122.34 100.26 0.86 12
6 11/05/2016 07:49:56 -81.29, -70.09 79.72 11/05/2016 07:48:55 -81.30, -70.01 79.74 1.44 61
7 11/08/2016 02:33:38 81.29,-171.28 101.06 11/08/2016 02:33:42 81.28,-171.43 101.05 2.60 4
8 11/08/2016 03:24:18 -81.29, -3.70 78.90 11/08/2016 03:23:09 -81.29, -3.76 78.95 1.24 69
9 11/10/2016 21:17:21 -81.28, 87.38 78.22 11/10/2016 21:18:30 -81.29, 87.49 78.17 2.06 69




NCC Satellite Simultaneous Nadir Overpasses (SNOs) Prediction Service
